User: anonymous   Login
Location: Unspecified
(0.0000°N, 0.0000°E)
Time: 16:22:55
(UTC+01:00)
Language:

Cosmos 1980 Rocket - Orbit

View from above orbital plane
View from above orbital plane
View from above satellite
View from above satellite

Ground track
Ground track

The orbit data is extracted from the following two-line orbital elements,

1 19650U 88102B   17344.50367783 -.00000111 +00000-0 -32072-4 0  9991
2 19650 071.0002 004.3506 0016859 274.0960 085.8236 14.15766447500673
Epoch (UTC): 10 December 2017 12:05:17
Eccentricity: 0.0016859
inclination: 71.0002°
perigee height: 827 km
apogee height: 852 km
right ascension of ascending node: 4.3506°
argument of perigee: 274.0960°
revolutions per day: 14.15766447
mean anomaly at epoch: 85.8236°
orbit number at epoch: 50067

The dashed part of the orbit path shows where the satellite is in the earth's shadow,  

DLR